Tracking 18840 objects as of 18-November-2017
HD Live streaming from Space Station
objects crossing your sky now

YAMAL 202

Track YAMAL 202 now!
YAMAL 202 is classified as:


NORAD ID: 28089
Int'l Code: 2003-053A
Perigee: 35,776.7 km
Apogee: 35,808.7 km
Inclination: 0.1 °
Period: 1,436.0 minutes
Semi major axis: 42163 km
RCS: 0.003 m2 (small)
Launch date: November 24, 2003
Source: Commonwealth of Independent States (former USSR) (CIS)
Launch site: TYURATAM MISSILE AND SPACE COMPLEX (TTMTR)

18 C-band; provide communications for gas corporation operations throughout Eurasian continent.
aabbcc
Your satellite tracking list
Your tracking list is empty




NASA's NSSDC Master Catalog

Two Line Element Set (TLE):
1 28089U 03053A   17321.92271609  .00000117  00000-0  00000+0 0  9996
2 28089   0.0628  91.5193 0003793 179.7243 167.1612  1.00275661 51264
Source of the keplerian elements: AFSPC